Volver al catálogo

COSMOS 1375 DEB

ActivoLEO
NORAD 16377·DEBRIS·🇷🇺 Russia

Lanzado Jun 6, 1982 desde Plesetsk Cosmodrome

Loading…

Próximos Pases (próximas 24 horas)

TLE

ActualizadoSource: Space-Track

Época: Sep 14, 2026, 01:17 UTC

1 16377U 82055R   26257.05370586  .00000741  00000-0  49257-3 0  9992
2 16377  65.8210 129.4834 0040085 331.1362 148.4131 14.06932476 79522

Sigue COSMOS 1375 DEB en tiempo real con AllMySat

Download on the App Store